Mosby, MO

6:52 AM CDT on October 15, 2019 (GMT -0500)
Clay County Regional

Weather History for KGPH - September, 2019

Change the Weather History Date:

Saturday, September 21, 2019

  Actual Average (WUND) Record (WUND)
Temperature  
Mean Temperature 74 °F -  
Max Temperature 78 °F - - (-1)
Min Temperature 71 °F - - (-1)
Cooling Degree Days 10    
Growing Degree Days 24 (Base 50)    
Moisture  
Dew Point 69 °F    
Average Humidity 87    
Maximum Humidity 100    
Minimum Humidity 74    
Precipitation  
Precipitation 0.00 in - - ()
Sea Level Pressure  
Sea Level Pressure 29.97 in    
Wind  
Wind Speed 4 mph ()    
Max Wind Speed 13 mph    
Max Gust Speed 30 mph    
Visibility 9.6 miles    
Events Rain , Thunderstorm    
Averages and records for this station are not official NWS values.
T = Trace of Precipitation, MM = Missing Value Source: Averaged Metar Reports

Daily Weather History Graph

Daily Weather History Graph

Search for Another Location

Airport or City:

Astronomy

Sep. 21, 2019 Rise Set
Actual Time 7:03 AM CDT 7:16 PM CDT
Civil Twilight 6:37 AM CDT 7:42 PM CDT
Nautical Twilight 6:05 AM CDT 8:14 PM CDT
Astronomical Twilight 5:33 AM CDT 8:46 PM CDT
Moon 11:56 PM CDT (9/21) 2:08 PM CDT (9/21)
Length of Visible Light 13h 05m
Length of Day
12h 12m
Waning Gibbous, 54% of the Moon is Illuminated
Sep 21
Waning Gibbous
Sep 21
Last Quarter
Sep 28
New
Oct 5
First Quarter
Oct 13
Full

Hourly Weather History & Observations

Time (CDT) Temp. Dew Point Humidity Pressure Visibility Wind Dir Wind Speed Gust Speed Precip Events Conditions
12:35 AM 71.6 °F 68.0 °F 88% 29.99 in 10.0 mi Calm Calm - N/A   Light Drizzle
12:55 AM 71.6 °F 68.0 °F 88% 29.99 in 10.0 mi Calm Calm - N/A   Overcast
1:15 AM 71.6 °F 68.0 °F 88% 29.99 in 10.0 mi Calm Calm - N/A   Overcast
1:35 AM 71.6 °F 68.0 °F 88% 29.99 in 10.0 mi South 8.1 mph - N/A   Overcast
1:55 AM 71.6 °F 68.0 °F 88% 29.99 in 10.0 mi South 8.1 mph - N/A   Overcast
2:15 AM 71.6 °F 68.0 °F 88% 29.99 in 10.0 mi Calm Calm - N/A   Overcast
2:35 AM 71.6 °F 68.0 °F 88% 29.99 in 10.0 mi South 5.8 mph - N/A   Overcast
2:55 AM 73.4 °F 68.0 °F 83% 29.99 in 10.0 mi South 3.5 mph - N/A   Overcast
3:15 AM 73.4 °F 68.0 °F 83% 29.98 in 10.0 mi Calm Calm - N/A   Overcast
3:55 AM 73.4 °F 68.0 °F 83% 29.98 in 10.0 mi Calm Calm - N/A   Overcast
4:35 AM 73.4 °F 68.0 °F 83% 29.98 in 10.0 mi Calm Calm - N/A   Overcast
4:55 AM 73.4 °F 68.0 °F 83% 29.98 in 10.0 mi South 4.6 mph - N/A   Overcast
5:35 AM 71.6 °F 68.0 °F 88% 29.97 in 10.0 mi Calm Calm - N/A   Overcast
5:55 AM 73.4 °F 68.0 °F 83% 29.98 in 10.0 mi Calm Calm - N/A Thunderstorm Overcast
6:35 AM 73.4 °F 68.0 °F 83% 29.97 in 10.0 mi Calm Calm - N/A Thunderstorm Overcast
6:55 AM 73.4 °F 68.0 °F 83% 29.97 in 10.0 mi South 8.1 mph - N/A Thunderstorm Overcast
7:15 AM 73.4 °F 68.0 °F 83% 29.97 in 10.0 mi Calm Calm - N/A   Overcast
7:35 AM 73.4 °F 68.0 °F 83% 29.97 in 10.0 mi Calm Calm - N/A   Overcast
8:15 AM 73.4 °F 68.0 °F 83% 29.98 in 10.0 mi South 8.1 mph - N/A   Overcast
8:35 AM 73.4 °F 68.0 °F 83% 29.98 in 10.0 mi South 8.1 mph 16.1 mph N/A   Overcast
9:15 AM 73.4 °F 69.8 °F 88% 29.99 in 10.0 mi South 5.8 mph - N/A   Overcast
9:55 AM 75.2 °F 69.8 °F 83% 29.99 in 10.0 mi South 8.1 mph - N/A   Overcast
10:15 AM 77.0 °F 69.8 °F 78% 29.98 in 10.0 mi South 10.4 mph 17.3 mph N/A   Overcast
10:35 AM 77.0 °F 69.8 °F 78% 29.98 in 10.0 mi South 8.1 mph 16.1 mph N/A Thunderstorm Overcast
10:55 AM 77.0 °F 69.8 °F 78% 29.97 in 10.0 mi South 8.1 mph - N/A Thunderstorm Thunderstorm
11:55 AM 78.8 °F 69.8 °F 74% 29.98 in 10.0 mi SSW 12.7 mph 18.4 mph N/A Thunderstorm Thunderstorm
12:35 PM 78.8 °F 69.8 °F 74% 29.97 in 10.0 mi South 10.4 mph 16.1 mph N/A Thunderstorm Overcast
12:55 PM 77.0 °F 69.8 °F 78% 29.97 in 10.0 mi South 12.7 mph 19.6 mph N/A Thunderstorm Overcast
1:55 PM 77.0 °F 69.8 °F 78% 29.97 in 10.0 mi South 10.4 mph 21.9 mph N/A Thunderstorm Overcast
2:15 PM 77.0 °F 69.8 °F 78% 29.96 in 10.0 mi South 12.7 mph 20.7 mph N/A Thunderstorm Overcast
2:35 PM 75.2 °F 69.8 °F 83% 29.97 in 5.0 mi South 12.7 mph 21.9 mph N/A Rain Heavy Rain
2:55 PM 73.4 °F 69.8 °F 88% 29.97 in 2.0 mi SSW 11.5 mph 18.4 mph N/A Rain , Thunderstorm Heavy Thunderstorms and Rain
3:15 PM 71.6 °F 69.8 °F 94% 30.00 in 2.0 mi SW 11.5 mph 29.9 mph N/A Rain , Thunderstorm Heavy Thunderstorms and Rain
3:35 PM 71.6 °F 69.8 °F 94% 29.98 in 10.0 mi South 10.4 mph - N/A Rain Rain
4:15 PM 71.6 °F 69.8 °F 94% 29.96 in 10.0 mi South 8.1 mph 16.1 mph N/A Rain Rain
5:15 PM 71.6 °F 71.6 °F 100% 29.96 in 10.0 mi SSE 3.5 mph - N/A   Scattered Clouds
5:35 PM 71.6 °F 71.6 °F 100% 29.95 in 10.0 mi SSE 5.8 mph - N/A   Clear
5:55 PM 73.4 °F 71.6 °F 94% 29.95 in 10.0 mi Calm Calm - N/A   Clear
7:35 PM 73.4 °F 69.8 °F 88% 29.94 in 10.0 mi Calm Calm - N/A   Scattered Clouds
8:55 PM 73.4 °F 69.8 °F 88% 29.93 in 10.0 mi Calm Calm - N/A   Scattered Clouds
9:15 PM 73.4 °F 69.8 °F 88% 29.92 in 10.0 mi Calm Calm - N/A   Mostly Cloudy
9:35 PM 71.6 °F 69.8 °F 94% 29.92 in 10.0 mi Calm Calm - N/A   Scattered Clouds
9:55 PM 71.6 °F 69.8 °F 94% 29.93 in 10.0 mi Calm Calm - N/A   Clear
10:15 PM 71.6 °F 69.8 °F 94% 29.92 in 10.0 mi Calm Calm - N/A   Clear
10:35 PM 71.6 °F 69.8 °F 94% 29.93 in 10.0 mi Calm Calm - N/A   Mostly Cloudy
10:55 PM 71.6 °F 69.8 °F 94% 29.93 in 10.0 mi Calm Calm - N/A   Overcast
11:15 PM 71.6 °F 69.8 °F 94% 29.93 in 10.0 mi Calm Calm - N/A Thunderstorm Overcast
11:35 PM 71.6 °F 69.8 °F 94% 29.93 in 10.0 mi Calm Calm - N/A Rain Rain